QPF
0.00 0.00 0.00 0.00 0.00 0.00 0.00 0.00 0.00 0.00 0.00 0.00 0.00 0.00 0.00 0.00 0.00 0.00 0.00 0.00 0.00 0.00 0.00 0.00 0.00 0.00 0.00 0.00 0.00 0.00 0.00 0.00 0.00 0.00 0.00 0.00 0.00 0.00 0.00 0.00 0.00 0.00 0.00 0.00 0.00
0.00 0.00 0.00 0.00 0.00 0.00 0.00 0.00 0.00 0.00 0.00 0.00 0.00 0.00 0.00 0.00 0.00 0.00 0.00 0.00 0.00 0.00 0.00 0.00 0.00 0.00 0.00 0.00 0.00 0.00 0.00 0.00 0.00 0.00 0.00 0.00 0.00 0.00 0.00 0.00 0.00 0.00 0.00 0.00 0.00
0.00 0.00 0.00 0.00 0.00 0.00 0.00 0.00 0.00 0.00 0.00 0.00 0.00 0.00 0.00 0.00 0.00 0.00 0.00 0.00 0.00 0.00 0.00 0.00 0.00 0.00 0.00 0.00 0.00 0.00 0.00 0.00 0.00 0.00 0.00 0.00 0.00 0.00 0.00 0.00 0.00 0.00 0.00 0.00 0.00
0.00 0.00 0.00 0.00 0.00 0.00 0.00 0.00 0.00 0.00 0.00 0.00 0.00 0.00 0.00 0.00 0.00 0.00 0.00 0.00 0.00 0.00 0.00 0.00 0.00 0.00 0.00 0.00 0.00 0.00 0.00 0.00 0.00 0.00 0.00 0.00 0.01 0.00 0.00 0.00 0.00 0.00 0.00 0.00 0.00
0.00 0.00 0.00 0.00 0.00 0.00 0.00 0.00 0.00 0.00 0.00 0.00 0.00 0.00 0.00 0.00 0.00 0.00 0.00 0.00 0.00 0.00 0.00 0.00 0.00 0.00 0.00 0.00 0.00 0.00 0.00 0.00 0.00 0.00 0.00 0.00 0.00 0.00 0.00 0.00 0.00 0.00 0.00 0.00 0.00
0.00 0.00 0.00 0.00 0.00 0.00 0.00 0.00 0.00 0.00 0.00 0.00 0.00 0.00 0.00 0.00 0.00 0.00 0.00 0.00 0.00 0.00 0.00 0.00 0.00 0.00 0.00 0.00 0.00 0.00 0.00 0.00 0.00 0.00 0.00 0.00 0.00 0.00 0.00 0.00 0.00 0.00 0.00 0.00 0.00
0.00 0.00 0.00 0.00 0.00 0.00 0.00 0.00 0.00 0.00 0.00 0.00 0.00 0.00 0.00 0.00 0.00 0.00 0.00 0.00 0.00 0.00 0.00 0.00 0.00 0.00 0.00 0.00 0.00 0.00 0.00 0.00 0.00 0.00 0.00 0.00 0.00 0.00 0.00 0.00 0.00 0.00 0.00 0.00 0.00
0.00 0.00 0.00 0.00 0.00 0.00 0.00 0.00 0.00 0.00 0.00 0.00 0.00 0.00 0.00 0.00 0.00 0.00 0.00 0.00 0.00 0.00 0.00 0.00 0.00 0.00 0.00 0.00 0.00 0.00 0.00 0.00 0.00 0.00 0.00 0.00 0.00 0.00 0.00 0.00 0.00 0.00 0.00 0.00 0.00
0.00 0.00 0.00 0.00 0.00 0.00 0.00 0.00 0.00 0.00 0.00 0.00 0.00 0.00 0.00 0.00 0.00 0.00 0.00 0.00 0.00 0.00 0.00 0.00 0.00 0.00 0.00 0.00 0.00 0.00 0.00 0.00 0.00 0.00 0.00 0.00 0.00 0.00 0.00 0.00 0.00 0.00 0.00 0.00 0.00
0.00 0.00 0.00 0.00 0.00 0.00 0.00 0.00 0.00 0.00 0.00 0.00 0.00 0.00 0.00 0.00 0.00 0.00 0.00 0.00 0.00 0.00 0.00 0.00 0.00 0.00 0.00 0.00 0.00 0.00 0.00 0.00 0.00 0.00 0.00 0.00 0.00 0.00 0.00 0.00 0.00 0.00 0.00 0.00 0.00
0.00 0.00 0.00 0.00 0.00 0.00 0.00 0.00 0.00 0.00 0.00 0.00 0.00 0.00 0.00 0.00 0.00 0.00 0.00 0.00 0.00 0.00 0.00 0.00 0.00 0.00 0.00 0.00 0.00 0.00 0.00 0.00 0.00 0.00 0.00 0.00 0.00 0.00 0.00 0.00 0.00 0.00 0.00 0.00 0.00
0.00 0.00 0.00 0.00 0.00 0.00 0.00 0.00 0.00 0.00 0.00 0.00 0.00 0.00 0.00 0.00 0.00 0.00 0.00 0.00 0.00 0.00 0.00 0.00 0.00 0.00 0.00 0.00 0.00 0.00 0.00 0.00 0.00 0.00 0.00 0.00 0.00 0.00 0.00 0.00 0.00 0.00 0.00 0.00 0.00
0.00 0.00 0.00 0.00 0.00 0.00 0.00 0.00 0.00 0.00 0.00 0.00 0.00 0.00 0.00 0.00 0.00 0.00 0.00 0.00 0.00 0.00 0.00 0.00 0.00 0.00 0.00 0.00 0.00 0.00 0.00 0.00 0.00 0.00 0.00 0.00 0.00 0.00 0.00 0.00 0.00 0.00 0.00 0.00 0.00
0.00 0.00 0.00 0.00 0.00 0.00 0.00 0.00 0.00 0.00 0.00 0.00 0.00 0.00 0.00 0.00 0.00 0.00 0.00 0.00 0.00 0.00 0.00 0.00 0.00 0.00 0.00 0.00 0.00 0.00 0.00 0.00 0.00 0.00 0.00 0.00 0.00 0.00 0.00 0.00 0.00 0.00 0.00 0.00 0.00
0.00 0.00 0.00 0.00 0.00 0.00 0.00 0.00 0.00 0.00 0.00 0.00 0.00 0.00 0.00 0.00 0.00 0.00 0.00 0.00 0.00 0.00 0.00 0.00 0.00 0.00 0.00 0.00 0.00 0.00 0.00 0.00 0.00 0.00 0.00 0.00 0.00 0.00 0.00 0.00 0.00 0.00 0.00 0.00 0.00
0.00 0.00 0.00 0.00 0.00 0.00 0.00 0.00 0.00 0.00 0.00 0.00 0.00 0.00 0.00 0.00 0.00 0.00 0.00 0.00 0.00 0.00 0.00 0.00 0.00 0.00 0.00 0.00 0.00 0.00 0.00 0.00 0.00 0.00 0.00 0.00 0.00 0.00 0.00 0.00 0.00 0.00 0.00 0.00 0.00
0.00 0.00 0.00 0.00 0.00 0.00 0.00 0.00 0.00 0.00 0.00 0.00 0.00 0.00 0.00 0.00 0.00 0.00 0.00 0.00 0.00 0.00 0.00 0.00 0.00 0.00 0.00 0.00 0.00 0.00 0.00 0.00 0.00 0.00 0.00 0.00 0.00 0.00 0.00 0.00 0.00 0.00 0.00 0.00 0.00
0.00 0.00 0.00 0.00 0.00 0.00 0.00 0.00 0.00 0.00 0.00 0.00 0.00 0.00 0.00 0.00 0.00 0.00 0.00 0.00 0.00 0.00 0.00 0.00 0.00 0.00 0.00 0.00 0.00 0.00 0.00 0.00 0.00 0.00 0.00 0.00 0.00 0.00 0.00 0.00 0.00 0.00 0.00 0.00 0.00
0.00 0.00 0.00 0.00 0.00 0.00 0.00 0.00 0.00 0.00 0.00 0.00 0.00 0.00 0.00 0.00 0.00 0.00 0.00 0.00 0.00 0.00 0.00 0.00 0.00 0.00 0.00 0.00 0.00 0.00 0.00 0.00 0.00 0.00 0.00 0.00 0.00 0.00 0.00 0.00 0.00 0.00 0.00 0.00 0.00
0.00 0.00 0.00 0.00 0.00 0.00 0.00 0.00 0.00 0.00 0.00 0.00 0.00 0.00 0.00 0.00 0.00 0.00 0.00 0.00 0.00 0.00 0.00 0.00 0.00 0.00 0.00 0.00 0.00 0.00 0.00 0.00 0.00 0.00 0.00 0.00 0.00 0.00 0.00 0.00 0.00 0.00 0.00 0.00 0.00
0.00 0.00 0.00 0.00 0.00 0.00 0.00 0.00 0.00 0.00 0.00 0.00 0.00 0.00 0.00 0.00 0.00 0.00 0.00 0.00 0.00 0.00 0.00 0.00 0.00 0.00 0.00 0.00 0.00 0.00 0.00 0.00 0.00 0.00 0.00 0.00 0.00 0.00 0.00 0.00 0.00 0.00 0.00 0.00 0.00
0.00 0.00 0.00 0.00 0.00 0.00 0.00 0.00 0.00 0.00 0.00 0.00 0.00 0.00 0.00 0.00 0.00 0.00 0.00 0.00 0.00 0.00 0.00 0.00 0.00 0.00 0.00 0.00 0.00 0.00 0.00 0.00 0.00 0.00 0.00 0.00 0.00 0.00 0.00 0.00 0.00 0.00 0.00 0.00 0.00
0.00 0.00 0.00 0.00 0.00 0.00 0.00 0.00 0.00 0.00 0.00 0.00 0.00 0.00 0.00 0.00 0.00 0.00 0.00 0.00 0.00 0.00 0.00 0.00 0.00 0.00 0.00 0.00 0.00 0.00 0.00 0.00 0.00 0.00 0.00 0.00 0.00 0.00 0.00 0.00 0.00 0.00 0.00 0.00 0.00
0.00 0.00 0.00 0.00 0.00 0.00 0.00 0.00 0.00 0.00 0.00 0.00 0.00 0.00 0.00 0.00 0.00 0.00 0.00 0.00 0.00 0.00 0.00 0.00 0.00 0.00 0.00 0.00 0.00 0.00 0.00 0.00 0.00 0.00 0.00 0.00 0.00 0.00 0.00 0.00 0.00 0.00 0.00 0.00 0.00
0.00 0.00 0.00 0.00 0.00 0.00 0.00 0.00 0.00 0.00 0.00 0.00 0.00 0.00 0.00 0.00 0.00 0.00 0.00 0.00 0.00 0.00 0.00 0.00 0.00 0.00 0.00 0.00 0.00 0.00 0.00 0.00 0.00 0.00 0.00 0.00 0.00 0.00 0.00 0.00 0.00 0.00 0.00 0.00 0.00
0.00 0.00 0.00 0.00 0.00 0.00 0.00 0.00 0.01 0.00 0.00 0.00 0.00 0.00 0.00 0.00 0.00 0.00 0.00 0.00 0.00 0.00 0.00 0.00 0.00 0.00 0.00 0.00 0.00 0.00 0.00 0.00 0.00 0.00 0.00 0.00 0.00 0.00 0.00 0.00 0.00 0.00 0.00 0.00 0.00
0.00 0.00 0.01 0.00 0.01 0.00 0.00 0.00 0.00 0.00 0.00 0.00 0.00 0.00 0.00 0.00 0.00 0.00 0.00 0.00 0.00 0.00 0.00 0.00 0.00 0.00 0.00 0.00 0.00 0.00 0.00 0.00 0.00 0.00 0.00 0.00 0.00 0.00 0.00 0.00 0.00 0.00 0.00 0.00 0.00
MSLP
1018.54 1018.07 1017.53 1017.03 1016.50 1016.03 1015.58 1015.15 1014.73 1014.25 1013.81 1013.35 1013.07 1012.62 1012.18 1011.87 1011.24 1010.96 1009.70 1006.78 1006.82 1007.04 1007.38 1008.20 1008.76 1009.18 1009.74 1010.47 1010.64 1011.01 1011.26 1010.62 1009.20 1008.46 1007.49 1007.32 1007.89 1008.55 1008.83 1009.53 1009.99 1010.61 1011.10 1011.81 1013.25
1018.56 1018.13 1017.62 1017.04 1016.43 1015.84 1015.35 1014.96 1014.55 1014.02 1013.50 1013.12 1012.83 1012.49 1012.07 1011.74 1011.25 1009.44 1005.29 1005.46 1005.66 1006.32 1007.30 1007.78 1008.41 1009.08 1009.83 1010.37 1010.71 1010.75 1010.55 1009.14 1007.73 1007.09 1006.98 1007.03 1007.56 1008.40 1009.03 1009.46 1010.08 1010.65 1011.37 1012.54 1013.38
1018.57 1018.09 1017.57 1016.97 1016.31 1015.69 1015.07 1014.49 1014.12 1013.85 1013.30 1012.79 1012.61 1012.34 1011.93 1011.72 1010.71 1006.07 1004.04 1004.64 1005.14 1005.86 1006.43 1007.28 1008.26 1008.87 1009.73 1010.26 1010.43 1010.15 1009.38 1007.90 1007.02 1006.60 1006.30 1006.80 1007.50 1008.02 1008.77 1009.41 1009.27 1010.09 1011.30 1012.54 1013.31
1018.52 1018.01 1017.47 1016.87 1016.18 1015.45 1014.79 1014.18 1013.63 1013.30 1012.99 1012.55 1012.23 1012.18 1011.80 1011.65 1008.78 1004.60 1003.78 1004.38 1005.04 1005.68 1006.68 1007.40 1008.31 1008.86 1009.36 1009.69 1009.55 1009.55 1008.12 1007.59 1006.67 1005.94 1006.13 1006.47 1006.94 1007.68 1008.32 1008.22 1008.54 1009.70 1010.49 1011.93 1013.09
1018.42 1017.84 1017.25 1016.62 1015.91 1015.14 1014.42 1013.80 1013.20 1012.64 1012.34 1012.12 1011.94 1011.95 1011.75 1010.72 1006.70 1004.47 1004.24 1005.03 1005.79 1006.10 1006.28 1006.79 1007.70 1008.21 1008.56 1008.65 1008.88 1008.68 1007.53 1006.94 1006.23 1005.54 1005.71 1006.19 1006.34 1007.12 1007.75 1007.93 1008.78 1010.33 1011.09 1011.78 1012.86
1018.22 1017.60 1016.92 1016.20 1015.44 1014.54 1013.63 1013.07 1012.53 1012.00 1011.57 1011.43 1011.56 1011.77 1011.62 1009.28 1004.36 1004.09 1004.42 1005.15 1005.27 1006.19 1006.45 1006.56 1006.68 1007.27 1007.52 1007.63 1007.68 1007.01 1006.78 1006.38 1005.96 1005.58 1005.76 1006.07 1006.56 1007.07 1007.74 1008.27 1009.40 1010.54 1011.22 1011.92 1012.34
1018.08 1017.33 1016.51 1015.71 1014.91 1013.90 1012.84 1012.07 1011.52 1010.94 1010.49 1010.42 1010.83 1011.35 1010.52 1005.82 1003.99 1004.26 1004.38 1004.77 1004.62 1005.36 1006.24 1006.11 1006.16 1007.01 1006.91 1007.14 1006.67 1006.53 1006.51 1005.77 1005.30 1005.25 1005.46 1006.09 1006.93 1006.72 1007.43 1008.41 1009.20 1010.50 1011.30 1011.85 1012.20
1017.89 1017.10 1016.19 1015.24 1014.27 1013.19 1011.92 1010.96 1010.30 1009.46 1009.01 1009.26 1010.11 1010.73 1008.29 1004.21 1004.02 1004.34 1004.62 1004.76 1005.04 1005.41 1005.72 1005.75 1006.26 1006.57 1006.85 1006.78 1006.52 1006.61 1006.66 1006.31 1004.63 1004.58 1005.00 1005.64 1005.96 1006.22 1007.16 1008.17 1008.98 1009.91 1011.02 1011.44 1011.78
1017.55 1016.70 1015.73 1014.88 1013.77 1012.48 1011.12 1009.98 1009.31 1008.68 1008.55 1009.13 1010.22 1010.05 1006.26 1003.80 1003.91 1003.49 1003.87 1004.56 1005.14 1005.68 1005.94 1005.84 1006.61 1006.85 1006.82 1007.32 1007.55 1007.23 1006.81 1006.21 1005.22 1004.11 1004.62 1005.19 1005.40 1005.56 1006.49 1007.45 1008.58 1009.26 1010.40 1010.95 1011.36
1017.44 1016.57 1015.42 1014.56 1013.45 1012.17 1010.61 1009.65 1009.51 1009.29 1009.72 1009.53 1009.51 1009.56 1005.10 1003.17 1002.60 1002.90 1003.53 1004.17 1005.10 1006.04 1006.54 1006.47 1006.78 1007.09 1007.18 1007.44 1007.05 1007.16 1006.75 1006.03 1005.15 1004.22 1004.56 1005.02 1004.82 1005.21 1005.99 1006.81 1007.68 1008.48 1009.66 1010.28 1010.54
1017.19 1016.40 1015.39 1014.22 1013.42 1012.17 1010.69 1009.90 1010.21 1009.98 1009.56 1008.26 1007.46 1006.07 1003.82 1002.38 1002.04 1002.45 1002.92 1003.88 1004.74 1005.53 1006.07 1006.24 1006.95 1006.41 1006.64 1006.83 1006.87 1006.71 1006.15 1005.55 1004.77 1004.27 1004.47 1004.77 1005.24 1005.53 1005.94 1006.82 1007.46 1007.97 1008.74 1009.35 1009.32
1017.15 1016.38 1015.58 1013.91 1013.14 1012.15 1011.29 1011.70 1012.90 1013.29 1010.67 1007.17 1005.72 1005.03 1003.47 1002.98 1002.64 1002.00 1002.22 1003.08 1003.88 1004.58 1005.25 1006.31 1005.22 1006.01 1006.39 1006.58 1006.60 1006.46 1006.14 1005.46 1004.81 1004.23 1004.60 1004.70 1005.10 1005.53 1005.81 1005.45 1005.93 1006.75 1007.66 1008.05 1008.81
1017.09 1016.26 1015.59 1014.44 1012.95 1012.69 1013.15 1012.58 1012.76 1012.71 1011.65 1005.74 1004.00 1003.03 1002.39 1002.91 1002.49 1001.35 1001.33 1001.72 1002.40 1003.53 1003.91 1004.07 1004.10 1005.20 1005.70 1005.81 1006.09 1005.87 1005.67 1005.52 1005.10 1004.60 1004.61 1005.03 1005.56 1005.72 1005.89 1005.96 1006.32 1006.63 1006.99 1007.52 1007.74
1017.04 1016.26 1015.75 1014.69 1013.19 1013.77 1012.79 1012.52 1012.47 1012.42 1010.55 1005.03 1002.71 1001.16 1001.25 1001.51 1001.42 1000.13 1000.27 1000.56 1001.52 1002.21 1003.50 1004.15 1003.65 1003.85 1004.57 1004.80 1005.04 1005.32 1005.23 1005.57 1005.67 1005.89 1005.81 1005.31 1005.79 1005.53 1005.04 1005.31 1005.47 1005.74 1006.09 1006.15 1006.70
1016.92 1016.39 1015.90 1015.39 1015.28 1014.40 1012.73 1012.20 1011.98 1012.00 1008.84 1002.89 1001.55 1000.31 1000.49 1000.56 999.84 999.47 999.25 999.97 1000.31 1000.90 1002.11 1002.18 1002.49 1003.27 1003.43 1003.20 1004.30 1004.44 1004.69 1005.31 1005.89 1006.30 1006.35 1005.95 1006.29 1004.56 1004.59 1004.84 1004.47 1004.32 1004.40 1004.77 1005.17
1016.79 1016.14 1015.87 1015.35 1015.35 1013.67 1012.97 1012.25 1011.84 1011.31 1006.58 1002.39 1001.18 1000.95 1001.14 1000.46 999.75 999.38 999.38 999.62 999.99 1001.01 1001.32 1001.70 1001.64 1002.13 1002.13 1002.74 1003.29 1004.10 1004.97 1005.83 1006.67 1007.10 1006.64 1005.77 1005.91 1004.13 1003.66 1002.83 1003.05 1003.01 1003.06 1003.41 1003.95
1016.67 1016.00 1015.28 1015.08 1014.59 1013.18 1012.89 1012.31 1011.93 1009.54 1004.90 1003.97 1002.90 1002.38 1002.13 1001.22 1000.34 999.92 1000.01 999.66 999.38 1000.61 1001.12 1001.45 1001.37 1001.07 1001.13 1002.30 1002.98 1003.69 1005.20 1006.96 1007.79 1007.76 1005.33 1005.13 1005.35 1002.36 1001.40 1000.90 1000.71 1001.15 1001.28 1001.82 1002.29
1016.67 1015.83 1015.13 1014.58 1013.80 1013.42 1013.25 1012.84 1011.53 1008.01 1006.45 1005.30 1004.23 1003.42 1003.00 1002.61 1001.89 1000.89 1000.26 1000.38 1000.04 1000.21 1000.95 1001.34 1001.35 1000.62 1000.29 1000.54 1001.65 1003.04 1004.35 1005.92 1007.07 1006.95 1005.81 1005.30 1003.08 1000.69 1000.15 1000.05 1000.02 999.83 999.84 1000.53 1001.39
1016.47 1015.86 1015.28 1014.12 1013.76 1013.71 1013.86 1013.09 1010.86 1009.29 1008.28 1006.85 1005.32 1004.81 1004.56 1003.95 1003.62 1002.46 1001.93 1001.46 1000.97 1000.58 1000.98 1001.31 1000.63 999.32 999.22 999.69 1000.63 1002.57 1003.80 1004.47 1006.14 1006.71 1006.22 1004.45 1002.06 1000.47 999.49 999.46 999.45 999.21 999.52 999.60 999.87
1017.68 1017.25 1015.72 1014.33 1013.83 1013.94 1014.51 1013.48 1011.59 1010.08 1009.04 1008.02 1007.27 1006.60 1006.30 1005.76 1004.93 1004.36 1003.71 1004.24 1002.83 1002.11 1001.74 1001.07 1000.91 999.42 998.90 999.48 1000.02 1000.75 1002.24 1004.46 1005.70 1006.39 1005.97 1003.85 1002.22 1000.14 999.38 998.85 998.63 998.81 998.70 998.38 998.63
1018.28 1017.74 1015.11 1014.39 1014.28 1014.76 1015.13 1014.34 1012.46 1010.83 1009.92 1009.32 1008.54 1008.15 1007.72 1007.29 1006.66 1005.98 1005.65 1005.42 1004.59 1003.62 1002.85 1002.39 1001.75 1000.42 999.42 998.80 999.08 1000.59 1001.47 1002.57 1003.68 1004.52 1004.38 1003.70 1000.95 998.96 998.40 997.88 997.40 997.14 997.16 997.18 997.55
1019.28 1018.43 1015.47 1014.80 1015.81 1016.41 1015.94 1015.14 1013.67 1011.93 1010.86 1010.12 1009.30 1009.06 1008.86 1008.43 1007.86 1007.24 1006.93 1006.69 1006.37 1005.43 1005.09 1004.61 1003.73 1002.21 1000.25 998.85 998.45 998.88 999.92 1001.27 1002.37 1003.48 1003.17 1002.21 999.22 997.64 996.72 996.44 996.87 996.65 996.16 996.32 996.62
1019.83 1019.19 1016.30 1016.01 1017.36 1017.51 1016.62 1015.19 1014.24 1013.45 1012.38 1011.30 1010.46 1010.06 1009.81 1009.62 1009.30 1008.60 1008.03 1007.68 1007.20 1006.65 1006.58 1005.86 1005.18 1003.82 1001.71 1000.14 999.20 999.25 999.73 1000.11 1000.65 1001.19 1000.51 1000.83 998.19 996.92 996.60 996.55 996.24 996.50 996.34 996.08 995.93
1020.13 1019.79 1018.48 1017.80 1018.24 1018.25 1017.53 1016.02 1014.67 1013.89 1013.16 1012.83 1011.77 1010.99 1010.89 1010.72 1010.40 1009.97 1009.11 1008.41 1008.24 1007.78 1007.40 1006.95 1006.62 1005.83 1004.17 1002.97 1002.00 1000.55 999.37 999.36 999.43 999.45 999.16 997.48 998.18 997.34 996.96 996.72 996.39 995.96 995.81 995.72 995.77
1020.26 1020.20 1019.85 1019.21 1018.53 1018.54 1017.99 1016.60 1015.54 1014.76 1014.19 1013.66 1013.06 1012.85 1012.55 1012.00 1011.49 1010.98 1010.35 1009.82 1009.29 1008.91 1008.55 1008.38 1008.11 1007.02 1005.75 1003.96 1002.72 1001.29 1000.06 999.20 998.33 998.04 997.59 997.82 997.34 997.38 996.79 996.30 995.88 995.02 995.61 995.74 995.60
1020.23 1019.98 1019.73 1019.33 1018.85 1018.21 1017.58 1016.63 1015.91 1015.35 1014.92 1014.31 1014.03 1013.74 1013.08 1012.75 1012.28 1012.14 1011.76 1011.21 1010.65 1010.06 1009.78 1009.64 1009.01 1007.94 1006.49 1004.32 1002.06 1000.82 999.49 998.37 998.00 997.58 997.06 996.79 996.06 995.52 995.29 995.26 995.32 994.93 994.99 995.05 994.94
1019.76 1019.69 1019.64 1019.05 1018.46 1018.12 1017.26 1016.64 1016.03 1015.73 1014.79 1014.36 1014.21 1014.12 1013.24 1012.47 1012.21 1011.86 1011.73 1011.43 1011.14 1011.17 1011.22 1010.82 1009.72 1008.65 1006.97 1004.95 1003.17 1000.14 997.83 997.57 997.03 996.58 996.22 995.43 995.66 995.17 994.54 994.47 994.69 994.42 994.46 994.78 994.47
Thickness
5720 5723 5726 5729 5733 5736 5739 5741 5744 5747 5749 5751 5753 5757 5760 5763 5769 5771 5777 5805 5807 5809 5808 5801 5796 5792 5789 5776 5779 5777 5749 5743 5766 5766 5781 5797 5783 5791 5793 5780 5784 5784 5779 5780 5774
5718 5721 5724 5728 5732 5736 5739 5741 5744 5748 5751 5752 5753 5755 5759 5761 5764 5775 5818 5817 5817 5813 5802 5793 5786 5788 5775 5771 5772 5765 5752 5766 5790 5795 5788 5796 5790 5784 5778 5777 5776 5776 5780 5776 5773
5716 5719 5722 5726 5731 5735 5739 5744 5747 5748 5752 5755 5755 5755 5757 5760 5766 5798 5825 5823 5819 5814 5809 5800 5791 5788 5773 5770 5770 5772 5767 5790 5797 5801 5806 5795 5788 5793 5778 5768 5783 5776 5773 5771 5769
5713 5717 5721 5725 5729 5734 5739 5744 5748 5751 5753 5755 5757 5755 5757 5757 5762 5812 5824 5822 5818 5813 5804 5794 5785 5776 5769 5765 5776 5765 5788 5793 5798 5808 5801 5793 5797 5787 5784 5788 5797 5789 5786 5774 5767
5710 5714 5719 5724 5729 5735 5740 5745 5750 5754 5756 5757 5758 5756 5756 5760 5782 5816 5818 5813 5808 5806 5800 5794 5781 5778 5768 5775 5776 5771 5787 5799 5806 5811 5806 5804 5796 5790 5788 5799 5794 5783 5779 5776 5768
5708 5712 5717 5723 5729 5735 5742 5747 5753 5757 5760 5761 5759 5756 5753 5756 5814 5817 5814 5808 5806 5798 5796 5797 5792 5788 5782 5782 5780 5791 5792 5800 5809 5809 5806 5796 5795 5793 5790 5798 5786 5777 5774 5773 5772
5704 5709 5716 5722 5729 5736 5743 5751 5757 5762 5765 5766 5762 5757 5757 5787 5814 5813 5813 5806 5809 5802 5791 5799 5798 5785 5787 5780 5794 5795 5782 5798 5806 5807 5801 5803 5782 5786 5795 5793 5785 5776 5773 5772 5775
5700 5706 5713 5720 5728 5736 5746 5755 5762 5769 5773 5771 5764 5758 5766 5813 5812 5808 5808 5803 5803 5800 5798 5800 5796 5788 5783 5789 5785 5781 5779 5765 5804 5812 5811 5803 5775 5800 5801 5790 5784 5779 5774 5775 5777
5697 5703 5710 5717 5726 5736 5747 5755 5762 5768 5770 5766 5757 5757 5774 5812 5805 5811 5808 5797 5795 5791 5790 5797 5786 5776 5781 5762 5749 5758 5751 5762 5782 5815 5809 5803 5787 5805 5807 5796 5784 5784 5778 5777 5777
5691 5697 5705 5712 5721 5731 5744 5751 5753 5756 5754 5757 5758 5755 5787 5800 5812 5810 5806 5801 5787 5777 5773 5772 5764 5754 5754 5746 5737 5747 5757 5768 5776 5806 5802 5793 5794 5805 5807 5800 5791 5789 5783 5781 5782
5685 5691 5697 5706 5713 5723 5736 5742 5738 5744 5747 5759 5768 5774 5792 5808 5817 5807 5804 5793 5785 5773 5752 5761 5743 5744 5759 5762 5769 5768 5770 5771 5786 5803 5797 5791 5792 5795 5802 5797 5791 5792 5789 5786 5791
5675 5681 5687 5699 5705 5713 5722 5719 5708 5703 5724 5761 5768 5776 5788 5793 5787 5802 5806 5784 5777 5762 5763 5748 5754 5762 5765 5764 5765 5765 5763 5765 5783 5798 5796 5792 5791 5798 5799 5804 5804 5798 5796 5796 5794
5662 5669 5676 5684 5696 5698 5694 5702 5699 5699 5698 5765 5773 5781 5784 5779 5780 5790 5801 5792 5779 5763 5769 5766 5767 5768 5762 5758 5756 5757 5760 5764 5772 5788 5794 5786 5776 5785 5798 5801 5801 5801 5802 5801 5801
5646 5653 5659 5670 5682 5676 5687 5689 5690 5690 5698 5751 5769 5780 5786 5781 5773 5803 5807 5796 5779 5774 5758 5756 5776 5772 5757 5758 5762 5737 5773 5771 5769 5762 5740 5785 5738 5772 5794 5796 5800 5803 5803 5807 5808
5630 5634 5640 5648 5650 5656 5674 5676 5680 5679 5683 5762 5764 5787 5781 5775 5792 5790 5808 5792 5775 5776 5765 5768 5769 5763 5762 5774 5769 5763 5779 5772 5770 5752 5754 5761 5741 5774 5790 5787 5799 5810 5815 5818 5821
5612 5617 5622 5631 5631 5647 5653 5660 5665 5669 5672 5737 5752 5753 5755 5767 5777 5787 5783 5793 5790 5769 5773 5769 5781 5772 5771 5776 5776 5777 5764 5753 5743 5734 5714 5753 5745 5759 5777 5804 5809 5817 5824 5826 5828
5594 5600 5608 5611 5618 5631 5634 5641 5643 5647 5712 5708 5712 5724 5734 5743 5760 5765 5760 5762 5760 5735 5740 5762 5765 5780 5784 5763 5770 5765 5737 5700 5701 5697 5729 5757 5741 5794 5811 5826 5832 5825 5832 5837 5841
5571 5577 5588 5594 5604 5609 5610 5622 5623 5668 5672 5688 5696 5704 5714 5717 5728 5739 5750 5748 5760 5759 5745 5731 5728 5767 5783 5777 5765 5757 5741 5699 5684 5690 5741 5737 5744 5787 5828 5834 5841 5846 5845 5844 5841
5548 5551 5560 5571 5578 5582 5582 5587 5615 5630 5640 5653 5673 5678 5677 5698 5706 5718 5721 5740 5753 5754 5740 5725 5736 5781 5785 5788 5781 5747 5729 5758 5719 5718 5712 5731 5766 5805 5824 5826 5832 5844 5844 5845 5849
5507 5508 5521 5538 5546 5550 5544 5557 5582 5604 5616 5625 5630 5647 5648 5662 5681 5685 5695 5696 5713 5729 5737 5745 5728 5764 5779 5780 5777 5759 5767 5727 5703 5703 5699 5727 5749 5770 5801 5818 5829 5831 5840 5854 5859
5469 5466 5495 5504 5510 5506 5506 5517 5554 5574 5586 5592 5603 5614 5626 5636 5651 5662 5669 5678 5694 5705 5717 5713 5728 5748 5758 5754 5762 5747 5739 5740 5741 5712 5715 5705 5742 5794 5811 5829 5841 5852 5858 5863 5864
5437 5436 5466 5471 5454 5451 5484 5490 5515 5537 5553 5564 5580 5587 5600 5613 5624 5638 5646 5651 5668 5680 5680 5691 5689 5713 5739 5769 5782 5779 5765 5738 5729 5716 5723 5725 5755 5818 5830 5840 5840 5848 5862 5868 5871
5423 5420 5442 5444 5419 5421 5439 5470 5484 5490 5505 5528 5545 5558 5572 5585 5593 5606 5622 5636 5646 5656 5657 5670 5669 5687 5715 5739 5755 5748 5757 5750 5743 5737 5751 5726 5759 5824 5827 5835 5845 5842 5853 5863 5873
5416 5408 5413 5418 5407 5411 5414 5430 5454 5466 5482 5488 5510 5528 5537 5549 5562 5570 5594 5616 5623 5635 5648 5651 5646 5660 5675 5695 5704 5716 5749 5752 5755 5734 5755 5768 5773 5804 5818 5819 5832 5844 5852 5860 5863
5405 5402 5401 5394 5407 5401 5400 5415 5431 5436 5453 5462 5469 5474 5494 5510 5528 5545 5566 5579 5597 5610 5617 5621 5627 5646 5658 5680 5693 5707 5722 5739 5746 5760 5745 5770 5769 5790 5810 5822 5836 5845 5848 5851 5857
5405 5405 5401 5401 5402 5408 5408 5413 5422 5426 5430 5441 5444 5447 5469 5479 5502 5509 5526 5545 5561 5580 5590 5586 5609 5621 5640 5673 5695 5701 5721 5739 5742 5752 5758 5768 5771 5807 5824 5824 5830 5839 5844 5848 5858
5407 5402 5395 5399 5404 5402 5409 5412 5418 5417 5433 5440 5438 5440 5454 5469 5480 5492 5505 5523 5542 5550 5554 5565 5583 5602 5617 5649 5662 5684 5729 5736 5745 5756 5763 5760 5782 5806 5817 5822 5828 5836 5838 5841 5850